GW3882 Weather Reports


time (UTC)temp
F
wind
direction
speed
knots
gust
knots
rain 1hr
in
rain 24hr
in
rain mn
in
humidity
%
barometer
mb
20260503013027 65 61 0.0 0.0 0.00 0.00 0.00 36 1014.5
20260503011525 65 294 0.0 0.0 0.00 0.00 0.00 37 1014.7
20260503010025 65 242 0.0 0.0 0.00 0.00 0.00 37 1014.8
20260503004523 63 290 0.0 0.0 0.00 0.00 0.00 39 1014.9
20260503003023 63 213 0.0 0.0 0.00 0.00 0.00 38 1015.1
20260503001523 64 236 0.0 0.0 0.00 0.00 0.00 38 1015.2
20260503000022 65 298 0.0 0.0 0.00 0.00 0.00 35 1015.2
20260502234522 66 259 0.0 0.0 0.00 0.00 0.00 35 1015.3
20260502233022 66 288 0.0 0.0 0.00 0.00 0.00 34 1015.5
20260502231524 66 27 0.0 0.0 0.00 0.00 0.00 35 1015.8
20260502230019 65 282 0.0 0.0 0.00 0.00 0.00 36 1015.9
20260502224530 66 304 0.0 0.0 0.00 0.00 0.00 37 1016.1
20260502223016 65 299 0.0 0.0 0.00 0.00 0.00 38 1016.3
20260502221515 63 286 0.0 0.0 0.00 0.00 0.00 39 1016.4
20260502220017 66 326 0.0 0.0 0.00 0.00 0.00 36 1016.5
20260502214512 65 242 0.0 0.0 0.00 0.00 0.00 38 1016.7
20260502213013 64 263 0.0 0.0 0.00 0.00 0.00 39 1016.8
20260502211514 65 34 0.0 0.0 0.00 0.00 0.00 38 1016.9
20260502210011 65 327 0.0 0.0 0.00 0.00 0.00 39 1017.1
20260502204508 64 5 0.0 0.0 0.00 0.00 0.00 41 1017.2
20260502203007 62 360 0.0 0.0 0.00 0.00 0.00 42 1017.3
20260502201510 61 319 0.0 0.0 0.00 0.00 0.00 43 1017.5
20260502200138 61 62 0.0 0.0 0.00 0.00 0.00 44 1017.7
20260502194505 61 355 0.0 0.0 0.00 0.00 0.00 45 1017.9
20260502193004 61 342 0.0 0.0 0.00 0.00 0.00 44 1018.1
20260502191504 62 11 0.0 0.0 0.00 0.00 0.00 42 1018.2
20260502190004 62 321 0.0 0.0 0.00 0.00 0.00 42 1018.3
20260502184503 63 355 0.0 0.0 0.00 0.00 0.00 41 1018.2
20260502183003 63 360 0.0 0.0 0.00 0.00 0.00 42 1018.3
20260502181504 63 13 0.0 0.0 0.00 0.00 0.00 44 1018.3
20260502163053 60 355 0.0 0.0 0.00 0.00 0.00 45 1018.4
20260502161551 60 348 0.0 0.0 0.00 0.00 0.00 44 1018.4
20260502151541 57 59 0.0 0.0 0.00 0.00 0.00 48 1018.2
20260502123019 43 52 0.0 0.0 0.00 0.00 0.00 65 1017.2
20260502121520 43 355 0.0 0.0 0.00 0.00 0.00 64 1017.1
20260502114513 44 40 0.0 0.0 0.00 0.00 0.00 61 1016.9
20260502113011 44 5 0.0 0.0 0.00 0.00 0.00 58 1016.7
20260502111516 44 5 0.0 0.0 0.00 0.00 0.00 57 1016.4
20260502110006 45 5 0.0 0.0 0.00 0.00 0.00 56 1016.1
20260502104510 46 44 0.0 0.0 0.00 0.00 0.00 55 1015.8
20260502103004 46 346 0.0 0.0 0.00 0.00 0.00 54 1015.7
20260502101609 46 45 0.0 0.0 0.00 0.00 0.00 53 1015.5
20260502070038 48 360 0.0 0.0 0.00 0.00 0.00 42 1014.5
20260502064538 48 5 0.0 0.0 0.00 0.00 0.00 42 1014.5
20260502063039 50 355 0.0 0.0 0.00 0.00 0.00 40 1014.5
20260502061529 51 321 0.0 0.0 0.00 0.00 0.00 40 1014.5
20260502060027 54 286 0.0 0.0 0.00 0.00 0.00 36 1014.4
20260502054534 53 311 0.0 0.0 0.00 0.00 0.00 36 1014.3
20260502053025 54 334 0.0 0.0 0.00 0.00 0.00 35 1014.3
20260502051526 53 317 0.0 0.0 0.00 0.00 0.00 35 1014.3
20260502050025 53 325 0.0 0.0 0.00 0.00 0.00 33 1014.2
20260502044525 54 328 0.0 0.0 0.00 0.00 0.00 31 1014.2
20260502043028 54 304 0.0 0.0 0.00 0.00 0.00 32 1014.2
20260502041524 50 313 0.0 0.0 0.00 0.00 0.00 36 1014.2
20260502040022 50 333 0.0 0.0 0.00 0.00 0.00 33 1014.1
20260502034522 54 294 0.0 0.0 0.00 0.00 0.00 29 1014.1
20260502033024 53 302 0.0 0.0 0.00 0.00 0.00 30 1014.1
20260502031521 53 276 0.0 0.0 0.00 0.00 0.00 29 1013.8
20260502030020 56 295 0.0 0.0 0.00 0.00 0.00 27 1013.7
20260502024519 57 296 0.0 0.0 0.00 0.00 0.00 26 1013.4
20260502023019 58 295 0.0 0.0 0.00 0.00 0.00 27 1013.4
20260502021518 61 271 0.0 0.0 0.00 0.00 0.00 25 1013.3
20260502020118 62 296 0.0 0.0 0.00 0.00 0.00 26 1013.3
20260502014516 65 252 0.0 0.0 0.00 0.00 0.00 24 1013.2